Saratoga-Weather Station Historical Data
 
Daily Summary for July 07, 2022 Units:  Metric    English   Both
Daily Weekly Monthly Yearly
  Current: High: Low: Average:
Temperature: 19.1 °C 19.8 °C 18.8 °C 19.2 °C
Dew Point: 16.5 °C 17.2 °C 16.4 °C 16.8 °C
Humidity: 84.9% 86.4% 84.9% 86%
Wind Speed: 3.8km/h 10.5km/h 0km/h 5.1km/h
Wind Gust: 3.5km/h 8.5km/h - -
WindSouth - - South
Pressure: 1024.3 hPa 1024.9 hPa 1024.2 hPa -
Precipitation: 0.0 mm      
 
 
Tabular Data for July 07, 2022
Time Temperature Dew Point Pressure Wind Wind Speed Wind Gust Humidity Rainfall Rate (Hourly) solar
00:04 19.7 °C 17.1 °C 1024.8 hPa Calm     85% 0.0 mm 0 W/m2
00:09 19.7 °C 17.1 °C 1024.8 hPa ESE 2.6 km/h 1.4 km/h 85% 0.0 mm 0 W/m2
00:14 19.8 °C 17.1 °C 1024.8 hPa SE 3.2 km/h 2.4 km/h 85% 0.0 mm 0 W/m2
00:19 19.8 °C 17.1 °C 1024.8 hPa SSE 1.3 km/h 0.6 km/h 85% 0.0 mm 0 W/m2
00:24 19.8 °C 17.2 °C 1024.9 hPa SE 1.7 km/h 1 km/h 85% 0.0 mm 0 W/m2
00:29 19.8 °C 17.2 °C 1024.8 hPa ENE 3.1 km/h 2.7 km/h 85% 0.0 mm 0 W/m2
00:34 19.7 °C 17.1 °C 1024.8 hPa South 4.8 km/h 3.9 km/h 85% 0.0 mm 0 W/m2
00:39 19.6 °C 17.2 °C 1024.8 hPa SE 5.2 km/h 4 km/h 85.8% 0.0 mm 0 W/m2
00:44 19.6 °C 17.2 °C 1024.8 hPa SSE 5.6 km/h 4 km/h 86% 0.0 mm 0 W/m2
00:49 19.5 °C 17.1 °C 1024.8 hPa South 5.3 km/h 3.7 km/h 86% 0.0 mm 0 W/m2
00:54 19.5 °C 17.1 °C 1024.8 hPa South 9.5 km/h 8.5 km/h 86% 0.0 mm 0 W/m2
00:59 19.4 °C 17 °C 1024.8 hPa South 6.3 km/h 4.5 km/h 86% 0.0 mm 0 W/m2
01:04 19.4 °C 17 °C 1024.8 hPa SSE 5.9 km/h 3.9 km/h 86% 0.0 mm 0 W/m2
01:09 19.4 °C 17 °C 1024.8 hPa SSW 5.6 km/h 4 km/h 86% 0.0 mm 0 W/m2
01:14 19.3 °C 16.9 °C 1024.8 hPa SSW 4.8 km/h 4 km/h 86% 0.0 mm 0 W/m2
01:19 19.3 °C 16.9 °C 1024.8 hPa SSW 7.3 km/h 6 km/h 86% 0.0 mm 0 W/m2
01:24 19.3 °C 16.9 °C 1024.7 hPa SSW 4.3 km/h 3.1 km/h 86% 0.0 mm 0 W/m2
01:29 19.3 °C 16.9 °C 1024.8 hPa SSW 9 km/h 8.4 km/h 86% 0.0 mm 0 W/m2
01:34 19.2 °C 16.8 °C 1024.8 hPa SSW 7.6 km/h 5.5 km/h 86% 0.0 mm 0 W/m2
01:39 19.2 °C 16.8 °C 1024.7 hPa SSW 6.2 km/h 4.8 km/h 86% 0.0 mm 0 W/m2
01:44 19.2 °C 16.8 °C 1024.7 hPa South 7.1 km/h 5.5 km/h 86% 0.0 mm 0 W/m2
01:49 19.2 °C 16.8 °C 1024.6 hPa SSW 5.7 km/h 4.3 km/h 86% 0.0 mm 0 W/m2
01:54 19.1 °C 16.7 °C 1024.6 hPa South 5.9 km/h 5 km/h 86% 0.0 mm 0 W/m2
01:59 19.1 °C 16.7 °C 1024.6 hPa SSE 6.8 km/h 5.8 km/h 86% 0.0 mm 0 W/m2
02:04 19.1 °C 16.7 °C 1024.5 hPa South 5.1 km/h 3.5 km/h 86% 0.0 mm 0 W/m2
02:09 19.1 °C 16.7 °C 1024.4 hPa SSW 6.1 km/h 4.3 km/h 86% 0.0 mm 0 W/m2
02:14 19.1 °C 16.6 °C 1024.4 hPa SSE 8 km/h 6.3 km/h 85.5% 0.0 mm 0 W/m2
02:19 19 °C 16.6 °C 1024.3 hPa South 7.4 km/h 5 km/h 85.8% 0.0 mm 0 W/m2
02:24 19.1 °C 16.7 °C 1024.3 hPa SSW 5 km/h 3.9 km/h 86% 0.0 mm 0 W/m2
02:29 19 °C 16.7 °C 1024.3 hPa SW 4.6 km/h 4.2 km/h 86% 0.0 mm 0 W/m2
02:34 19 °C 16.6 °C 1024.2 hPa South 4.8 km/h 3.5 km/h 86% 0.0 mm 0 W/m2
02:39 18.9 °C 16.5 °C 1024.2 hPa SSE 4.8 km/h 3.4 km/h 86% 0.0 mm 0 W/m2
02:44 18.9 °C 16.5 °C 1024.2 hPa SSE 3.8 km/h 1.1 km/h 86% 0.0 mm 0 W/m2
02:49 18.8 °C 16.4 °C 1024.2 hPa SSE 2.7 km/h 1.6 km/h 86% 0.0 mm 0 W/m2
02:54 18.8 °C 16.4 °C 1024.2 hPa SSE 3.5 km/h 1.8 km/h 86% 0.0 mm 0 W/m2
02:59 18.8 °C 16.4 °C 1024.3 hPa SSE 3.2 km/h 1.9 km/h 86.2% 0.0 mm 0 W/m2
03:04 18.8 °C 16.4 °C 1024.3 hPa SSE 2.4 km/h 1.9 km/h 86.3% 0.0 mm 0 W/m2
03:09 18.8 °C 16.5 °C 1024.3 hPa SSE 2.9 km/h 2.1 km/h 86.4% 0.0 mm 0 W/m2
03:14 18.9 °C 16.5 °C 1024.3 hPa SE 3 km/h 2.1 km/h 86.3% 0.0 mm 0 W/m2
03:19 18.9 °C 16.5 °C 1024.4 hPa ESE 2.5 km/h 2.7 km/h 86% 0.0 mm 0 W/m2
03:24 19 °C 16.6 °C 1024.4 hPa SE 4.5 km/h 4.2 km/h 86% 0.0 mm 0 W/m2
03:29 19 °C 16.6 °C 1024.3 hPa West 9.2 km/h 6.4 km/h 86% 0.0 mm 0 W/m2
03:34 19.1 °C 16.7 °C 1024.3 hPa WSW 10.5 km/h 7.4 km/h 86% 0.0 mm 0 W/m2
03:39 19.1 °C 16.7 °C 1024.3 hPa South 3.6 km/h 2.7 km/h 85.7% 0.0 mm 0 W/m2
03:44 19.2 °C 16.6 °C 1024.3 hPa SSE 5.4 km/h 4.7 km/h 85.3% 0.0 mm 0 W/m2
03:49 19.1 °C 16.6 °C 1024.3 hPa South 5.5 km/h 4.2 km/h 85% 0.0 mm 0 W/m2
03:54 19.1 °C 16.5 °C 1024.4 hPa SW 6.2 km/h 4.3 km/h 85% 0.0 mm 0 W/m2
03:59 19.1 °C 16.6 °C 1024.3 hPa SSW 4.3 km/h 3.7 km/h 85% 0.0 mm 0 W/m2
04:04 19.1 °C 16.5 °C 1024.3 hPa South 3.8 km/h 3.5 km/h 84.9% 0.0 mm 0 W/m2
San Sebastian - Arriola Weather
Compliments of Weather Underground - 512 kb